Weather History for LHUD - February, 2013

Change the Weather History Date:

Tuesday, February 26, 2013

  Actual Average (LRAR) Record (LRAR)
Temperature  
Mean Temperature 44 °F -  
Max Temperature 46 °F 51 °F 66 °F (2008)
Min Temperature 42 °F 33 °F 10 °F (2003)
Degree Days  
Heating Degree Days 21    
Moisture  
Dew Point 44 °F    
Average Humidity 96    
Maximum Humidity 100    
Minimum Humidity 87    
Precipitation  
Precipitation 0.16 in 0.04 in - ()
Sea Level Pressure  
Sea Level Pressure 30.11 in    
Wind  
Wind Speed 4 mph ()    
Max Wind Speed 8 mph    
Max Gust Speed -    
Visibility 5.4 miles    
Events Rain    
Averages and records for this station are not official NWS values.
T = Trace of Precipitation, MM = Missing Value Source: Averaged Metar Reports

Daily Weather History Graph

Daily Weather History Graph

Search for Another Location

Airport or City:

Trip Planner

Search our weather history database for the weather conditions in past years. The results will help you decide how hot, cold, wet, or windy it might be!

Date:

Astronomy

Feb. 26, 2013 Rise Set
Actual Time 6:24 AM CET 5:21 PM CET
Civil Twilight 5:53 AM CET 5:51 PM CET
Nautical Twilight 5:19 AM CET 6:26 PM CET
Astronomical Twilight 4:44 AM CET 7:01 PM CET
Moon 6:25 PM CET (2/26) 6:12 AM CET (2/26)
Length of Visible Light 11h 57m
Length of Day
10h 57m
Full, 100% of the Moon is Illuminated
Feb 26
Full
Mar 4
Last Quarter
Mar 11
New
Mar 19
First Quarter
Mar 27
Full

Hourly Weather History & Observations

Time (CET) Temp. Windchill Dew Point Humidity Pressure Visibility Wind Dir Wind Speed Gust Speed Precip Events Conditions
12:45 AM 44.6 °F 42.2 °F 44.6 °F 100% 30.06 in 1.2 mi NW 4.6 mph - N/A Rain Light Rain
1:00 AM 45 °F - 45 °F 99% 30.09 in 1 mi NW 4.5 mph - - Rain Light Rain
1:45 AM 44.6 °F 43.1 °F 44.6 °F 100% 30.06 in 3.7 mi WNW 3.5 mph - N/A   Mostly Cloudy
2:45 AM 44.6 °F 43.1 °F 44.6 °F 100% 30.06 in 3.7 mi West 3.5 mph - N/A Rain Light Rain
3:45 AM 44.6 °F 42.2 °F 44.6 °F 100% 30.06 in 6.2 mi West 4.6 mph - N/A   Overcast
4:45 AM 46.4 °F 43.5 °F 44.6 °F 93% 30.06 in 6.2 mi NW 5.8 mph - N/A   Overcast
5:15 AM 44.6 °F 42.2 °F 44.6 °F 100% 30.09 in 6.2 mi NW 4.6 mph - N/A   Mostly Cloudy
5:45 AM 44.6 °F 42.2 °F 44.6 °F 100% 30.09 in 6.2 mi NW 4.6 mph - N/A   Mostly Cloudy
6:15 AM 44.6 °F 42.2 °F 44.6 °F 100% 30.06 in 3.1 mi NW 4.6 mph - N/A   Mostly Cloudy
6:45 AM 44.6 °F 42.2 °F 44.6 °F 100% 30.09 in 1.9 mi WSW 4.6 mph - N/A Rain Light Rain
7:00 AM 45 °F - 45 °F 98% 30.09 in 2 mi WSW 4.5 mph - - Rain Light Rain
7:15 AM 44.6 °F 41.4 °F 44.6 °F 100% 30.09 in 1.6 mi SW 5.8 mph - N/A Rain Light Rain
7:45 AM 44.6 °F 42.2 °F 44.6 °F 100% 30.09 in 1.9 mi West 4.6 mph - N/A Rain Light Rain
8:15 AM 44.6 °F - 44.6 °F 100% 30.12 in 1.6 mi NNW 2.3 mph - N/A Rain Light Rain
8:45 AM 44.6 °F 43.1 °F 44.6 °F 100% 30.12 in 1.7 mi West 3.5 mph - N/A Rain Rain
9:15 AM 44.6 °F 43.1 °F 44.6 °F 100% 30.12 in 3.7 mi West 3.5 mph - N/A Rain Light Rain
9:45 AM 44.6 °F 42.2 °F 44.6 °F 100% 30.12 in 6.2 mi WSW 4.6 mph - N/A Rain Light Rain
10:15 AM 44.6 °F 43.1 °F 44.6 °F 100% 30.12 in 6.2 mi WSW 3.5 mph - N/A Rain Light Rain
10:45 AM 46.4 °F 43.5 °F 44.6 °F 93% 30.12 in 6.2 mi SSW 5.8 mph - N/A Rain Light Rain
11:15 AM 46.4 °F 45.2 °F 44.6 °F 93% 30.12 in 6.2 mi South 3.5 mph - N/A Rain Light Rain
11:45 AM 46.4 °F - 44.6 °F 93% 30.12 in 6.2 mi SSW 2.3 mph - N/A Rain Light Rain
12:15 PM 46.4 °F - 44.6 °F 93% 30.15 in 6.2 mi SW 2.3 mph - N/A Rain Light Rain
12:45 PM 46.4 °F 45.2 °F 44.6 °F 93% 30.12 in 6.2 mi SW 3.5 mph - N/A Rain Light Rain
1:00 PM 46 °F - 44 °F 92% 30.14 in 16 mi SW 4.5 mph - - Rain Light Rain
1:15 PM 46.4 °F 44.3 °F 44.6 °F 93% 30.12 in 6.2 mi SW 4.6 mph - N/A Rain Light Rain
1:45 PM 46.4 °F 44.3 °F 44.6 °F 93% 30.12 in 6.2 mi SW 4.6 mph - N/A Rain Light Rain
2:45 PM 46.4 °F 45.2 °F 42.8 °F 87% 30.12 in 6.2 mi West 3.5 mph - N/A Rain Light Rain
3:15 PM 46.4 °F - 42.8 °F 87% 30.12 in 6.2 mi West 2.3 mph - N/A   Overcast
3:45 PM 46.4 °F 45.2 °F 42.8 °F 87% 30.12 in 6.2 mi West 3.5 mph - N/A Rain Light Rain
4:15 PM 46.4 °F 45.2 °F 42.8 °F 87% 30.12 in 6.2 mi WNW 3.5 mph - N/A Rain Light Rain
4:45 PM 46.4 °F 45.2 °F 44.6 °F 93% 30.12 in 6.2 mi NW 3.5 mph - N/A   Overcast
5:45 PM 46.4 °F 45.2 °F 44.6 °F 93% 30.12 in 6.2 mi North 3.5 mph - N/A   Overcast
6:15 PM 44.6 °F - 44.6 °F 100% 30.15 in 6.2 mi WNW 2.3 mph - N/A   Overcast
6:45 PM 44.6 °F 42.2 °F 44.6 °F 100% 30.15 in 6.2 mi West 4.6 mph - N/A   Mostly Cloudy
7:00 PM 45 °F - 44 °F 96% 30.14 in 9 mi West 4.5 mph - -   Partly Cloudy
7:15 PM 44.6 °F 42.2 °F 44.6 °F 100% 30.15 in 6.2 mi WSW 4.6 mph - N/A   Mostly Cloudy
7:45 PM 44.6 °F 41.4 °F 44.6 °F 100% 30.12 in 6.2 mi WSW 5.8 mph - N/A   Mostly Cloudy
8:15 PM 44.6 °F 41.4 °F 44.6 °F 100% 30.12 in 6.2 mi WSW 5.8 mph - N/A   Mostly Cloudy
8:45 PM 44.6 °F 40.2 °F 42.8 °F 93% 30.12 in 6.2 mi WSW 8.1 mph - N/A   Mostly Cloudy
9:45 PM 44.6 °F 40.7 °F 42.8 °F 93% 30.15 in 6.2 mi WSW 6.9 mph - N/A Rain Light Rain
10:45 PM 42.8 °F 39.3 °F 42.8 °F 100% 30.15 in 6.2 mi SSW 5.8 mph - N/A Rain Light Rain
11:45 PM 42.8 °F 39.3 °F 42.8 °F 100% 30.15 in 6.2 mi WSW 5.8 mph - N/A Rain Light Rain